Total_Precipitation_Accumulation
1.29 1.44 1.37 1.20 1.11 1.09 0.98 0.93 1.02 1.09 1.13 1.15 1.09 1.02 0.95 0.94 1.07 1.23 1.24 1.31 1.39 1.45 1.49 1.48 1.46 1.47 1.50 1.39 1.45 1.58 1.75 1.90 1.76 1.63 1.53 1.48 1.41 1.31 1.18 0.97 0.83 0.74 0.66
1.60 1.81 1.74 1.38 1.16 1.06 0.89 0.81 0.90 1.04 1.11 1.10 1.04 0.98 0.92 0.97 1.12 1.23 1.34 1.54 1.65 1.60 1.52 1.43 1.33 1.38 1.45 1.43 1.51 1.52 1.59 1.82 1.80 1.75 1.72 1.73 1.63 1.43 1.34 1.20 0.95 0.83 0.79
1.39 1.65 1.56 1.24 1.02 0.93 0.88 0.87 0.99 1.10 1.12 1.08 1.07 1.07 1.14 1.23 1.36 1.45 1.51 1.64 1.65 1.55 1.51 1.41 1.32 1.35 1.36 1.43 1.52 1.52 1.51 1.56 1.70 1.72 1.72 1.81 1.78 1.57 1.41 1.27 1.14 1.17 1.03
0.94 1.20 1.20 1.03 0.94 0.87 0.88 0.92 0.94 0.99 1.03 1.08 1.23 1.40 1.50 1.55 1.57 1.62 1.63 1.57 1.52 1.40 1.33 1.24 1.24 1.33 1.38 1.40 1.36 1.39 1.42 1.50 1.58 1.62 1.66 1.77 1.82 1.74 1.55 1.41 1.38 1.33 1.21
0.83 1.03 1.01 0.93 0.90 0.84 0.81 0.86 0.93 1.01 1.06 1.20 1.37 1.49 1.47 1.47 1.48 1.57 1.59 1.53 1.44 1.31 1.18 0.99 0.95 1.14 1.27 1.30 1.20 1.26 1.31 1.37 1.40 1.47 1.55 1.67 1.76 1.87 1.68 1.46 1.39 1.44 1.37
0.75 0.96 0.98 0.91 0.84 0.78 0.81 0.91 1.06 1.13 1.23 1.35 1.40 1.40 1.35 1.08 1.05 1.13 1.21 1.25 1.24 1.18 1.07 0.99 0.94 0.95 0.94 0.93 0.94 0.97 1.04 1.14 1.28 1.46 1.55 1.61 1.63 1.73 1.81 1.72 1.65 1.60 1.56
0.76 0.94 1.01 0.96 0.94 0.92 0.89 1.02 1.18 1.25 1.32 1.38 1.37 1.34 1.29 1.22 1.07 0.94 0.92 0.99 1.05 1.06 1.05 1.07 0.86 0.75 0.83 0.83 0.85 0.80 0.76 0.79 0.91 1.15 1.36 1.43 1.56 1.60 1.83 1.85 1.87 1.95 1.91
0.83 0.99 1.02 0.99 1.03 1.12 1.12 1.17 1.32 1.46 1.47 1.46 1.44 1.39 1.40 1.33 1.18 1.00 0.88 0.85 0.98 1.05 1.04 1.05 1.03 0.97 0.94 0.99 0.99 0.91 0.79 0.74 0.74 0.78 0.99 1.25 1.46 1.69 1.76 1.80 1.88 1.94 1.92
0.85 0.98 1.07 1.15 1.25 1.29 1.31 1.42 1.58 1.69 1.64 1.64 1.67 1.63 1.60 1.58 1.36 1.06 0.92 0.93 1.08 1.09 1.09 1.07 1.06 1.03 1.01 0.90 0.90 0.91 0.88 0.86 0.71 0.71 0.77 0.95 1.13 1.22 1.43 1.63 1.77 1.71 1.62
1.16 1.21 1.37 1.54 1.71 1.80 1.82 1.86 1.89 1.96 1.87 1.82 1.75 1.70 1.63 1.65 1.56 1.19 1.02 1.04 1.21 1.24 1.27 1.23 1.08 0.95 0.88 0.77 0.78 0.91 0.89 0.86 0.88 0.80 0.69 0.71 0.82 0.95 1.02 1.14 1.38 1.54 1.44
1.40 1.48 1.68 1.98 2.15 2.10 2.07 2.01 1.96 1.97 1.96 1.93 1.85 1.82 1.80 1.77 1.69 1.30 1.13 1.19 1.35 1.43 1.40 1.32 1.23 1.05 0.82 0.75 0.71 0.77 0.80 0.83 0.92 0.95 0.94 0.90 0.98 1.09 1.04 1.01 1.13 1.30 1.33
1.57 1.77 1.97 2.19 2.16 2.07 2.22 2.14 2.10 2.13 2.10 2.03 2.02 1.97 1.97 1.92 1.76 1.45 1.17 1.20 1.35 1.50 1.55 1.47 1.36 1.13 0.88 0.77 0.71 0.67 0.65 0.64 0.72 0.86 0.91 0.90 0.94 1.05 1.11 1.08 1.10 1.13 1.17
1.72 1.89 2.01 2.10 2.28 2.42 2.46 2.38 2.28 2.22 2.17 2.04 1.98 1.90 1.85 1.89 1.86 1.43 1.16 1.19 1.26 1.34 1.52 1.53 1.29 1.06 0.91 0.76 0.74 0.74 0.67 0.63 0.74 0.82 0.82 0.82 0.82 0.93 1.12 1.24 1.26 1.25 1.20
1.57 1.60 1.75 1.94 2.07 2.17 2.40 2.47 2.40 2.26 2.20 2.15 2.03 1.91 1.85 1.89 1.87 1.53 1.23 1.18 1.22 1.22 1.32 1.38 1.25 1.09 0.97 0.86 0.81 0.77 0.74 0.76 0.84 0.87 0.88 0.91 0.91 0.98 1.06 1.15 1.24 1.28 1.24
1.56 1.52 1.53 1.59 1.73 1.82 1.95 2.08 2.09 2.11 1.93 1.83 1.72 1.66 1.66 1.71 1.68 1.42 1.24 1.23 1.35 1.41 1.38 1.42 1.43 1.30 1.17 1.07 1.03 1.06 1.07 1.03 0.96 0.95 0.98 1.00 0.98 0.98 1.03 1.09 1.17 1.20 1.13
1.52 1.46 1.46 1.49 1.58 1.66 1.71 1.68 1.53 1.47 1.31 1.18 1.14 1.11 1.12 1.16 1.25 1.11 1.00 1.09 1.26 1.32 1.26 1.29 1.40 1.39 1.31 1.22 1.16 1.16 1.15 1.09 1.03 1.03 1.02 1.00 0.98 0.95 0.97 1.02 1.06 1.07 1.04
1.53 1.39 1.31 1.27 1.34 1.39 1.49 1.63 1.69 1.48 1.26 1.07 0.96 0.84 0.81 0.89 0.98 0.97 0.93 0.97 1.07 1.11 1.08 1.14 1.24 1.28 1.25 1.21 1.15 1.12 1.07 1.09 1.10 1.06 1.02 1.03 1.01 0.96 0.93 0.96 0.98 1.04 1.03
1.43 1.32 1.23 1.23 1.28 1.33 1.42 1.54 1.67 1.67 1.42 1.09 0.93 0.80 0.69 0.68 0.71 0.74 0.75 0.80 0.89 0.93 0.95 1.02 1.08 1.12 1.13 1.13 1.12 1.11 1.08 1.09 1.08 1.06 1.02 1.01 1.01 0.96 0.96 0.97 0.94 0.96 1.01
1.25 1.17 1.11 1.16 1.20 1.19 1.25 1.33 1.40 1.45 1.36 1.19 0.99 0.80 0.65 0.55 0.56 0.60 0.60 0.67 0.83 0.88 0.87 0.91 0.93 0.94 0.98 1.01 1.02 1.06 1.06 1.02 1.01 1.05 1.02 0.98 1.00 1.01 1.00 0.99 0.99 1.00 1.01
1.15 0.98 0.91 0.97 1.02 1.04 1.10 1.15 1.19 1.25 1.23 1.16 1.04 0.79 0.59 0.53 0.61 0.67 0.67 0.77 0.86 0.87 0.83 0.86 0.82 0.81 0.86 0.93 0.98 1.03 1.03 1.04 1.07 1.04 1.01 1.00 0.98 0.99 0.96 0.97 1.00 1.02 1.02
1.09 0.92 0.70 0.66 0.75 0.82 0.92 1.01 1.04 1.05 1.09 1.07 0.91 0.65 0.46 0.43 0.55 0.70 0.80 0.84 0.84 0.83 0.78 0.74 0.70 0.72 0.78 0.83 0.88 0.91 0.96 1.03 1.02 1.01 1.04 1.01 0.97 0.97 0.96 0.97 0.96 0.97 1.00
0.98 0.89 0.73 0.64 0.66 0.70 0.78 0.89 0.91 0.88 0.87 0.86 0.77 0.57 0.42 0.39 0.52 0.65 0.72 0.72 0.71 0.73 0.70 0.66 0.64 0.69 0.72 0.75 0.80 0.86 0.91 0.94 0.95 0.98 1.00 0.99 0.98 0.97 0.97 1.01 1.01 0.99 1.00
0.91 0.83 0.72 0.65 0.67 0.64 0.68 0.78 0.79 0.76 0.73 0.69 0.63 0.56 0.47 0.49 0.57 0.65 0.67 0.66 0.66 0.64 0.63 0.62 0.60 0.59 0.65 0.68 0.70 0.76 0.82 0.83 0.84 0.87 0.93 0.97 0.98 0.98 1.02 1.04 1.00 0.95 0.96
0.81 0.77 0.65 0.61 0.63 0.68 0.68 0.70 0.67 0.63 0.61 0.58 0.54 0.53 0.52 0.56 0.59 0.60 0.61 0.61 0.60 0.56 0.54 0.55 0.56 0.56 0.60 0.64 0.64 0.64 0.67 0.69 0.70 0.73 0.78 0.84 0.87 0.94 1.01 1.04 1.00 0.96 1.02
0.78 0.79 0.69 0.60 0.59 0.61 0.63 0.64 0.62 0.61 0.56 0.51 0.50 0.50 0.52 0.54 0.55 0.58 0.58 0.55 0.51 0.50 0.47 0.48 0.54 0.55 0.51 0.51 0.52 0.52 0.56 0.54 0.54 0.60 0.69 0.78 0.81 0.88 0.99 1.03 1.03 1.03 1.09
0.71 0.74 0.68 0.59 0.55 0.56 0.57 0.63 0.65 0.59 0.54 0.48 0.47 0.50 0.47 0.44 0.44 0.46 0.45 0.43 0.43 0.43 0.43 0.45 0.48 0.49 0.47 0.45 0.44 0.45 0.43 0.40 0.41 0.50 0.55 0.64 0.74 0.81 0.89 0.95 0.94 1.01 1.09